EW4652 Weather Reports


Display with metric or nautical units.
time (UTC)temp
F
wind
direction
speed
MPH
gust
MPH
rain 1hr
in
rain 24hr
in
rain mn
in
humidity
%
barometer
mb
20260504023007 55 280 0.0 3.0 0.00 0.00 0.00 45 1006.9
20260504021506 56 280 2.0 3.0 0.00 0.00 0.00 45 1006.8
20260504020005 57 280 2.0 4.0 0.00 0.00 0.00 44 1006.7
20260504014507 59 281 5.0 9.0 0.00 0.00 0.00 42 1006.6
20260504013005 61 296 4.0 9.0 0.00 0.00 0.00 40 1006.7
20260504011504 62 296 4.0 8.0 0.00 0.00 0.00 40 1006.7
20260504010003 64 295 4.0 10.0 0.00 0.00 0.00 38 1006.6
20260504004505 66 293 4.0 11.0 0.00 0.00 0.00 36 1006.5
20260504003001 68 297 4.0 10.0 0.00 0.00 0.00 31 1006.5
20260504001502 69 308 7.0 11.0 0.00 0.00 0.00 30 1006.6
20260504000137 69 307 10.0 16.0 0.00 0.00 0.00 30 1006.6
20260503234603 69 303 10.0 16.0 0.00 0.00 0.00 28 1006.5
20260503233140 70 313 7.0 14.0 0.00 0.00 0.00 30 1006.4
20260503231539 70 327 8.0 19.0 0.00 0.00 0.00 28 1006.5
20260503230138 70 315 9.0 17.0 0.00 0.00 0.00 27 1006.5
20260503224538 71 277 10.0 17.0 0.00 0.00 0.00 30 1006.4
20260503223038 71 322 11.0 18.0 0.00 0.00 0.00 28 1006.4
20260503221539 71 315 9.0 19.0 0.00 0.00 0.00 30 1006.4
20260503220036 71 298 12.0 25.0 0.00 0.00 0.00 31 1006.4
20260503214534 71 302 14.0 23.0 0.00 0.00 0.00 31 1006.5
20260503213034 71 304 8.0 19.0 0.00 0.00 0.00 34 1006.6
20260503211534 71 338 11.0 21.0 0.00 0.00 0.00 31 1006.5
20260503210032 71 294 16.0 21.0 0.00 0.00 0.00 29 1006.5
20260503204531 71 336 11.0 24.0 0.00 0.00 0.00 28 1006.7
20260503203036 71 312 11.0 24.0 0.00 0.00 0.00 28 1006.7
20260503201630 71 319 13.0 20.0 0.00 0.00 0.00 29 1006.8
20260503200028 70 304 10.0 22.0 0.00 0.00 0.00 31 1006.8
20260503194529 71 5 9.0 19.0 0.00 0.00 0.00 33 1006.8
20260503193025 70 304 13.0 19.0 0.00 0.00 0.00 35 1007.0
20260503191523 70 5 13.0 23.0 0.00 0.00 0.00 35 1007.0
20260503190025 70 10 12.0 20.0 0.00 0.00 0.00 32 1007.1
20260503184520 70 346 9.0 25.0 0.00 0.00 0.00 36 1007.1
20260503183021 69 290 14.0 21.0 0.00 0.00 0.00 34 1007.1
20260503181515 69 5 10.0 20.0 0.00 0.00 0.00 36 1007.1
20260503180013 69 5 11.0 21.0 0.00 0.00 0.00 37 1007.3
20260503174509 68 327 10.0 24.0 0.00 0.00 0.00 41 1007.4
20260503173008 68 337 11.0 25.0 0.00 0.00 0.00 41 1007.4
20260503171509 67 317 11.0 21.0 0.00 0.00 0.00 43 1007.3
20260503090112 52 232 16.0 23.0 0.00 0.00 0.00 55 1012.1
20260503081551 53 232 16.0 25.0 0.00 0.00 0.00 51 1012.4
20260503071604 54 248 14.0 20.0 0.00 0.00 0.00 49 1012.8
20260503054539 51 228 8.0 12.0 0.00 0.00 0.00 49 1013.6
20260503053035 51 220 8.0 10.0 0.00 0.00 0.00 49 1013.8
20260503051526 51 223 8.0 11.0 0.00 0.00 0.00 48 1013.8
20260503050022 51 218 7.0 10.0 0.00 0.00 0.00 48 1014.0
20260503044541 52 220 7.0 11.0 0.00 0.00 0.00 48 1013.9
20260503043036 51 215 6.0 11.0 0.00 0.00 0.00 49 1014.0
20260503041518 51 208 5.0 8.0 0.00 0.00 0.00 49 1014.2
20260503040015 51 202 5.0 9.0 0.00 0.00 0.00 48 1014.4
20260503034515 53 210 5.0 8.0 0.00 0.00 0.00 46 1014.6
20260503033014 53 219 7.0 10.0 0.00 0.00 0.00 45 1014.7
20260503031512 53 217 6.0 9.0 0.00 0.00 0.00 45 1015.0
20260503030008 53 218 6.0 8.0 0.00 0.00 0.00 46 1015.2
20260503024507 54 227 5.0 9.0 0.00 0.00 0.00 44 1015.3